St. Cloud, MN

5:48 PM CDT on May 24, 2017 (GMT -0500)
Saint Cloud Regional

Weather History for KSTC - October, 2013

Change the Weather History Date:

Tuesday, October 22, 2013

  Actual Average Record
Temperature  
Mean Temperature 32 °F 43 °F  
Max Temperature 41 °F 54 °F 81 °F (1992)
Min Temperature 23 °F 33 °F 13 °F (1976)
Degree Days  
Heating Degree Days 33 22  
Month to date heating degree days 365 385  
Since 1 July heating degree days 543 671  
Cooling Degree Days 0 0  
Month to date cooling degree days 0 0  
Year to date cooling degree days 578 463  
Moisture  
Dew Point 27 °F    
Average Humidity 76    
Maximum Humidity 92    
Minimum Humidity 59    
Precipitation  
Precipitation T in 0.07 in 0.86 in (1951)
Month to date precipitation 4.27 1.93  
Year to date precipitation 26.47 24.97  
Snow  
Snow T in 0.00 in 1.50 in (1925)
Month to date snowfall 0.8 0.3  
Since 1 July snowfall 0.8 0.3  
Since 1 September snowfall 0.8 0.3  
Snow Depth 0.00 in    
Sea Level Pressure  
Sea Level Pressure 30.04 in    
Wind  
Wind Speed 4 mph (NW)    
Max Wind Speed 14 mph    
Max Gust Speed 17 mph    
Visibility 10 miles    
Events      
T = Trace of Precipitation, MM = Missing Value Source: NWS Daily Summary

Daily Weather History Graph

Daily Weather History Graph

Search for Another Location

Airport or City:

Trip Planner

Search our weather history database for the weather conditions in past years. The results will help you decide how hot, cold, wet, or windy it might be!

Date:

Astronomy

Oct. 22, 2013 Rise Set
Actual Time 7:42 AM CDT 6:18 PM CDT
Civil Twilight 7:12 AM CDT 6:48 PM CDT
Nautical Twilight 6:37 AM CDT 7:22 PM CDT
Astronomical Twilight 6:03 AM CDT 7:57 PM CDT
Moon 8:51 PM CDT (10/22) 11:19 AM CDT (10/22)
Length of Visible Light 11h 36m
Length of Day
10h 35m
Waning Gibbous, 86% of the Moon is Illuminated
Oct 22
Waning Gibbous
Oct 26
Last Quarter
Nov 3
New
Nov 9
First Quarter
Nov 17
Full

Hourly Weather History & Observations

Time (CDT) Temp. Windchill Dew Point Humidity Pressure Visibility Wind Dir Wind Speed Gust Speed Precip Events Conditions
12:53 AM 25.0 °F 20.7 °F 23.0 °F 92% 30.02 in 10.0 mi WNW 3.5 mph - N/A   Partly Cloudy
1:10 AM 26.6 °F 22.6 °F 23.0 °F 86% 29.96 in 10.0 mi NW 3.5 mph - N/A   Mostly Cloudy
1:32 AM 24.8 °F 20.5 °F 21.2 °F 86% 29.96 in 10.0 mi WNW 3.5 mph - N/A   Scattered Clouds
1:53 AM 25.0 °F - 21.9 °F 88% 30.02 in 10.0 mi Calm Calm - N/A   Partly Cloudy
2:53 AM 25.0 °F - 23.0 °F 92% 30.02 in 10.0 mi Calm Calm - N/A   Clear
3:53 AM 24.1 °F - 21.0 °F 88% 30.02 in 10.0 mi Calm Calm - N/A   Partly Cloudy
4:05 AM 24.8 °F - 21.2 °F 86% 29.96 in 10.0 mi Calm Calm - N/A   Mostly Cloudy
4:53 AM 27.0 °F - 25.0 °F 92% 30.03 in 10.0 mi Calm Calm - N/A   Overcast
5:53 AM 28.0 °F 24.2 °F 26.1 °F 92% 30.02 in 10.0 mi WNW 3.5 mph - N/A   Overcast
6:53 AM 28.0 °F - 26.1 °F 92% 30.04 in 10.0 mi Calm Calm - N/A   Overcast
7:53 AM 28.9 °F - 27.0 °F 92% 30.04 in 10.0 mi Calm Calm - N/A   Overcast
8:53 AM 30.0 °F - 27.0 °F 88% 30.06 in 10.0 mi Calm Calm - N/A   Overcast
9:53 AM 33.1 °F 30.0 °F 28.9 °F 85% 30.06 in 10.0 mi NW 3.5 mph - N/A   Overcast
10:53 AM 36.0 °F 30.3 °F 28.9 °F 76% 30.07 in 10.0 mi NW 6.9 mph - N/A   Overcast
11:18 AM 37.4 °F 31.4 °F 28.4 °F 70% 30.00 in 10.0 mi NNW 8.1 mph - N/A   Overcast
11:53 AM 37.0 °F 30.4 °F 28.9 °F 73% 30.07 in 10.0 mi NW 9.2 mph - N/A   Overcast
12:53 PM 37.9 °F 32.7 °F 27.0 °F 65% 30.06 in 10.0 mi NNW 6.9 mph - N/A   Overcast
1:26 PM 39.2 °F 33.6 °F 26.6 °F 61% 30.00 in 10.0 mi North 8.1 mph - N/A   Overcast
1:53 PM 39.0 °F 32.8 °F 27.0 °F 62% 30.06 in 10.0 mi NNW 9.2 mph - N/A   Overcast
2:53 PM 39.9 °F 35.1 °F 28.9 °F 65% 30.05 in 10.0 mi WNW 6.9 mph - N/A   Overcast
3:53 PM 39.9 °F 32.5 °F 28.0 °F 63% 30.06 in 10.0 mi WNW 12.7 mph - N/A   Overcast
4:53 PM 39.0 °F 31.4 °F 28.9 °F 67% 30.06 in 10.0 mi WNW 12.7 mph - N/A   Overcast
5:53 PM 37.9 °F 33.5 °F 28.0 °F 68% 30.07 in 10.0 mi WNW 5.8 mph - N/A   Overcast
6:53 PM 37.0 °F 31.6 °F 28.9 °F 73% 30.08 in 10.0 mi NNE 6.9 mph - N/A   Overcast
7:53 PM 34.0 °F - 30.0 °F 85% 30.08 in 10.0 mi Calm Calm - 0.00 in   Overcast
8:53 PM 34.0 °F 31.0 °F 30.0 °F 85% 30.08 in 10.0 mi NW 3.5 mph - N/A   Overcast
9:53 PM 34.0 °F 29.8 °F 30.0 °F 85% 30.09 in 10.0 mi NW 4.6 mph - N/A   Overcast
10:53 PM 32.0 °F - 30.0 °F 92% 30.09 in 10.0 mi Calm Calm - N/A   Overcast
11:53 PM 33.1 °F 28.7 °F 28.0 °F 82% 30.08 in 10.0 mi WNW 4.6 mph - N/A   Overcast